This is the latest recevied weather packets stored in our database for station/object KC7UNY-13. If no packets are shown the sender has not sent any weather packets the latest 10 day(s).
| Time | Temp. | Humidity | Pressure | Rain* | Wind** | Luminosity | Snow |
|---|---|---|---|---|---|---|---|
| 1777744700 | 31.67° C | 26% | 1014.3 hPa | 0 mm | - | 727 W/m² | - |
| 1777744394 | 31.11° C | 27% | 1014.4 hPa | 0 mm | - | 720 W/m² | - |
| 1777744092 | 30.56° C | 27% | 1014.5 hPa | 0 mm | - | 710 W/m² | - |
| 1777743789 | 31.11° C | 27% | 1014.4 hPa | 0 mm | - | 700 W/m² | - |
| 1777743485 | 30.56° C | 28% | 1014.5 hPa | 0 mm | - | 691 W/m² | - |
| 1777743183 | 30° C | 28% | 1014.5 hPa | 0 mm | - | 681 W/m² | - |
| 1777742881 | 30° C | 29% | 1014.6 hPa | 0 mm | - | 670 W/m² | - |
| 1777742576 | 30° C | 29% | 1014.6 hPa | 0 mm | - | 658 W/m² | - |
| 1777742272 | 30° C | 29% | 1014.5 hPa | 0 mm | - | 647 W/m² | - |
| 1777741969 | 29.44° C | 29% | 1014.5 hPa | 0 mm | - | 635 W/m² | - |
| 1777741666 | 30° C | 29% | 1014.6 hPa | 0 mm | - | 622 W/m² | - |
| 1777741363 | 30° C | 30% | 1014.7 hPa | 0 mm | - | 609 W/m² | - |
| 1777741059 | 30° C | 29% | 1014.6 hPa | 0 mm | - | 596 W/m² | - |
| 1777740756 | 29.44° C | 30% | 1014.5 hPa | 0 mm | - | 580 W/m² | - |
| 1777740452 | 29.44° C | 30% | 1014.6 hPa | 0 mm | - | 567 W/m² | - |
| 1777740151 | 30° C | 30% | 1014.7 hPa | 0 mm | - | 553 W/m² | - |
| 1777739846 | 29.44° C | 31% | 1014.7 hPa | 0 mm | - | 538 W/m² | - |
| 1777739543 | 29.44° C | 30% | 1014.7 hPa | 0 mm | - | 524 W/m² | - |
| 1777739240 | 28.89° C | 31% | 1014.5 hPa | 0 mm | - | 509 W/m² | - |
| 1777738936 | 28.89° C | 31% | 1014.7 hPa | 0 mm | - | 494 W/m² | - |
| 1777738634 | 28.33° C | 32% | 1014.5 hPa | 0 mm | - | 478 W/m² | - |
| 1777738330 | 28.33° C | 32% | 1014.5 hPa | 0 mm | - | 466 W/m² | - |
| 1777738028 | 28.89° C | 31% | 1014.6 hPa | 0 mm | - | 449 W/m² | - |
| 1777737727 | 28.33° C | 32% | 1014.4 hPa | 0 mm | - | 433 W/m² | - |
| 1777737425 | 28.33° C | 33% | 1014.5 hPa | 0 mm | - | 417 W/m² | - |
* Rain latest hour (hover to see other rain measurements)
** Current wind speed in m/s (hover to see current wind gust speed)